Recent Weather

Hourly Averages

Time Temperature Humidity Pressure UV Index Image
 
November 19th, 2017
9:00 am 31.9 93.0 1.0
8:00 am 32.1 94.8 1.0
7:00 am 33.1 96.6 1.0
6:00 am 34.1 96.6 1.0
5:00 am 34.9 96.4 1.0
4:00 am 35.7 98.2 1.0
3:00 am 37.1 95.2 1.0
2:00 am 37.7 96.1 1.0
1:00 am 38.1 89.8 1.0
12:00 am 38.3 92.1 1.0
 
November 18th, 2017
11:00 pm 38.6 93.4 1.0
10:00 pm 38.9 90.3 1.0
9:00 pm 39.3 93.2 1.0
8:00 pm 39.4 98.6 1.0
7:00 pm 39.5 99.0 1.0
6:00 pm 39.6 99.0 1.0
5:00 pm 39.0 99.0 1.0
4:00 pm 41.8 99.0 1.0
3:00 pm 44.3 99.0 1.0
2:00 pm 45.2 99.0 1.0
1:00 pm 47.3 99.0 1.0
12:00 pm 50.1 99.0 1.0
10:00 am 52.9 99.0 1.0
9:00 am 52.9 99.0 1.0
8:00 am 52.8 99.0 1.0
7:00 am 52.4 99.0 1.0
6:00 am 52.6 99.0 1.0
5:00 am 52.8 99.0 1.0 Rain
4:00 am 52.9 99.0 1.0
3:00 am 53.6 97.3 1.0
2:00 am 52.7 94.5 1.0
1:00 am 50.3 96.2 1.0
12:00 am 48.5 98.3 1.0 Rain
 
November 17th, 2017
11:00 pm 46.6 97.2 1.0
10:00 pm 44.4 99.0 1.0
9:00 pm 44.5 97.0 1.0
8:00 pm 46.5 76.1 1.0 Rain
7:00 pm 46.5 71.9 1.0
6:00 pm 46.9 71.5 1.0
5:00 pm 46.9 72.7 1.0
4:00 pm 46.9 72.9 1.0
3:00 pm 47.6 71.8 1.0
2:00 pm 48.5 70.9 1.0
1:00 pm 49.1 72.4 1.0
12:00 pm 47.8 75.0 1.0
11:00 am 46.6 77.6 1.0
10:00 am 42.9 87.2 1.0
9:00 am 38.5 96.3 1.0
8:00 am 33.2 99.0 1.0
7:00 am 31.6 99.0 1.0
6:00 am 31.5 99.0 1.0
5:00 am 31.2 99.0 1.0
4:00 am 30.6 99.0 1.0
3:00 am 32.3 99.0 1.0
2:00 am 34.0 99.0 1.0
1:00 am 33.8 99.0 1.0
12:00 am 34.0 99.0 1.0
 
November 16th, 2017
11:00 pm 34.7 99.0 1.0
10:00 pm 35.0 98.2 1.0
9:00 pm 35.1 95.8 1.0
8:00 pm 35.3 94.3 1.0
7:00 pm 35.6 93.6 1.0
6:00 pm 36.2 89.8 1.0
5:00 pm 36.8 87.6 1.0
4:00 pm 37.7 85.7 1.0
3:00 pm 38.2 84.1 1.0
2:00 pm 38.2 84.0 1.0
1:00 pm 37.8 84.5 1.0
12:00 pm 37.4 86.8 1.0
11:00 am 35.5 89.1 1.0
10:00 am 34.0 91.0 1.0
9:00 am 32.7 94.5 1.0
8:00 am 31.0 97.3 1.0
7:00 am 29.8 99.0 1.0
6:00 am 30.5 96.8 1.0
5:00 am 32.0 93.5 1.0
4:00 am 33.4 91.8 1.0
3:00 am 33.3 91.8 1.0
2:00 am 33.1 92.9 1.0
1:00 am 33.0 94.8 1.0
12:00 am 34.1 95.7 1.0
 
November 15th, 2017
11:00 pm 36.0 93.7 1.0
10:00 pm 40.9 90.5 1.0
9:00 pm 43.3 91.3 1.0
8:00 pm 44.3 94.6 1.0
7:00 pm 45.2 98.0 1.0
6:00 pm 46.6 98.9 1.0
5:00 pm 49.0 96.8 1.0
4:00 pm 49.9 99.0 1.0
3:00 pm 48.8 99.0 1.0
2:00 pm 48.1 99.0 1.0
1:00 pm 47.3 99.0 1.0
12:00 pm 46.5 99.0 1.0
11:00 am 45.6 99.0 1.0
10:00 am 44.6 99.0 1.0
9:00 am 43.4 99.0 1.0
8:00 am 42.6 99.0 1.0
7:00 am 42.4 99.0 1.0
6:00 am 43.1 98.9 1.0
5:00 am 43.7 94.0 1.0
4:00 am 44.1 90.3 1.0
3:00 am 44.5 86.6 1.0 Rain
2:00 am 44.4 84.8 1.0
1:00 am 44.8 83.3 1.0
12:00 am 45.3 82.3 1.0
 
November 14th, 2017
11:00 pm 45.4 82.0 1.0
10:00 pm 45.0 82.8 1.0
9:00 pm 44.0 85.7 1.0
8:00 pm 43.1 87.1 1.0
7:00 pm 44.0 83.0 1.0
6:00 pm 46.3 78.6 1.0
5:00 pm 49.7 71.3 1.0
4:00 pm 53.9 64.6 1.0
3:00 pm 57.9 59.5 1.0
2:00 pm 59.0 59.5 1.6
1:00 pm 57.8 61.3 1.3
12:00 pm 54.8 67.9 1.1
11:00 am 51.6 72.9 1.0
10:00 am 47.1 85.0 1.0
9:00 am 40.0 22.6 1.0
8:00 am 31.0 99.0 1.0
7:00 am 27.3 99.0 1.0
6:00 am 27.6 99.0 1.0
5:00 am 29.1 99.0 1.0
4:00 am 29.5 99.0 1.0
3:00 am 31.0 99.0 1.0
2:00 am 30.7 99.0 1.0
1:00 am 30.2 99.0 1.0
12:00 am 32.1 99.0 1.0
 
November 13th, 2017
11:00 pm 33.3 99.0 1.0
10:00 pm 33.2 99.0 1.0
9:00 pm 34.8 98.0 1.0
8:00 pm 39.0 97.4 1.0
7:00 pm 39.9 97.8 1.0
6:00 pm 41.4 91.3 1.0
5:00 pm 43.0 86.0 1.0
4:00 pm 44.9 82.1 1.0
3:00 pm 46.1 80.1 1.0
2:00 pm 44.9 84.6 1.3
1:00 pm 45.8 84.6 1.0
12:00 pm 43.5 92.6 1.0
11:00 am 39.9 98.6 1.0
10:00 am 37.6 99.0 1.0
9:00 am 37.4 99.0 1.0
8:00 am 37.0 99.0 1.0
7:00 am 37.0 99.0 1.0
6:00 am 37.4 99.0 1.0
5:00 am 37.7 99.0 1.0
4:00 am 37.8 99.0 1.0
3:00 am 38.0 99.0 1.0
2:00 am 38.0 99.0 1.0
1:00 am 37.6 99.0 1.0
12:00 am 37.2 99.0 1.0
 
November 12th, 2017
11:00 pm 36.9 99.0 1.0
10:00 pm 36.7 99.0 1.0
9:00 pm 36.6 99.0 1.0
8:00 pm 36.5 99.0 1.0
7:00 pm 36.4 99.0 1.0
6:00 pm 36.3 99.0 1.0
5:00 pm 37.2 99.0 1.0
4:00 pm 39.6 98.4 1.0
3:00 pm 41.2 97.0 1.0
2:00 pm 41.7 94.1 1.0
1:00 pm 42.3 91.8 1.0
12:00 pm 42.4 85.1 1.0
11:00 am 42.1 82.2 1.0
10:00 am 41.2 85.4 1.0
9:00 am 39.2 90.3 1.0
8:00 am 37.5 90.1 1.0
7:00 am 36.4 92.8 1.0
6:00 am 35.9 95.1 1.0
5:00 am 35.9 93.8 1.0
4:00 am 36.1 90.1 1.0
3:00 am 35.6 90.9 1.0
2:00 am 35.5 85.8 1.0
1:00 am 36.1 84.5 1.0
12:00 am 36.9 81.6 1.0
 
November 11th, 2017
11:00 pm 37.3 80.8 1.0
10:00 pm 37.1 80.2 1.0
9:00 pm 36.8 79.2 1.0
8:00 pm 36.4 82.2 1.0
7:00 pm 36.5 80.7 1.0
6:00 pm 37.2 77.9 1.0
5:00 pm 41.0 67.2 1.0
4:00 pm 46.7 54.6 1.0
3:00 pm 49.0 49.9 1.0
2:00 pm 48.9 52.6 1.0
1:00 pm 48.2 53.6 1.0
12:00 pm 46.1 55.4 1.0
11:00 am 38.6 69.0 1.0
10:00 am 33.7 76.4 1.0
9:00 am 29.9 85.4 1.0
8:00 am 25.5 91.6 1.0
7:00 am 23.9 90.4 1.0
6:00 am 23.9 92.0 1.0
5:00 am 23.7 91.2 1.0
4:00 am 23.8 89.4 1.0
3:00 am 24.0 88.2 1.0
2:00 am 24.3 85.9 1.0
1:00 am 24.5 83.9 1.0
12:00 am 24.7 81.0 1.0
 
November 10th, 2017
11:00 pm 24.6 80.4 1.0
10:00 pm 25.1 78.6 1.0
9:00 pm 25.7 77.8 1.0
8:00 pm 26.3 74.5 1.0
7:00 pm 27.3 67.7 1.0
6:00 pm 28.7 62.8 1.0
5:00 pm 32.1 54.2 1.0
4:00 pm 37.0 46.9 1.0
3:00 pm 38.3 47.9 1.1
2:00 pm 38.6 49.1 1.9
1:00 pm 37.1 51.4 1.4
12:00 pm 36.4 55.9 1.0
11:00 am 34.4 60.1 1.0
10:00 am 32.4 69.6 1.0
9:00 am 26.5 83.0 1.0
8:00 am 23.1 86.1 1.0
7:00 am 21.4 87.9 1.0
6:00 am 20.0 90.4 1.0
5:00 am 20.9 87.0 1.0
4:00 am 22.1 88.6 1.0
3:00 am 22.8 84.5 1.0
2:00 am 24.6 74.5 1.0
1:00 am 26.6 70.1 1.0
12:00 am 28.6 70.8 1.0
 
November 9th, 2017
11:00 pm 29.9 67.0 1.0
10:00 pm 30.6 67.8 1.0
9:00 pm 32.2 70.8 1.0
8:00 pm 34.2 70.9 1.0
7:00 pm 35.9 75.0 1.0
6:00 pm 40.8 69.5 1.0
5:00 pm 44.2 66.7 1.0
4:00 pm 47.8 63.0 1.0
3:00 pm 51.1 62.0 1.0
2:00 pm 52.1 58.7 1.4
1:00 pm 52.2 61.8 1.3
12:00 pm 51.3 62.9 1.1
11:00 am 48.8 69.2 1.0
10:00 am 47.2 75.2 1.0
9:00 am 35.4 99.0 1.0
8:00 am 31.6 99.0 1.0
6:00 am 27.6 99.0 1.0
5:00 am 25.8 99.0 1.0
4:00 am 24.0 99.0 1.0
3:00 am 24.6 99.0 1.0
2:00 am 25.1 99.0 1.0
1:00 am 25.8 99.0 1.0
12:00 am 26.3 99.0 1.0
 
November 8th, 2017
11:00 pm 27.3 99.0 1.0
10:00 pm 28.2 99.0 1.0
9:00 pm 30.3 99.0 1.0
8:00 pm 31.9 98.9 1.0
7:00 pm 34.9 94.5 1.0
6:00 pm 40.6 77.2 1.0
5:00 pm 51.0 57.8 1.0
4:00 pm 57.8 49.3 1.0
3:00 pm 56.9 49.0 1.1
2:00 pm 55.7 52.4 1.4
1:00 pm 55.1 51.8 1.1
12:00 pm 54.2 54.8 1.6
11:00 am 50.3 63.4 1.1
10:00 am 45.4 77.1 1.0
9:00 am 38.5 91.7 1.0
8:00 am 31.6 99.0 1.0
7:00 am 26.9 99.0 1.0
6:00 am 27.5 99.0 1.0
5:00 am 29.7 99.0 1.0
4:00 am 32.2 99.0 1.0
3:00 am 33.0 99.0 1.0
2:00 am 33.2 98.9 1.0
1:00 am 34.3 96.8 1.0
12:00 am 36.5 91.1 1.0
 
November 7th, 2017
11:00 pm 39.7 86.6 1.0
10:00 pm 40.9 85.0 1.0
9:00 pm 41.1 82.9 1.0
8:00 pm 41.8 77.0 1.0
7:00 pm 43.4 75.9 1.0
6:00 pm 45.0 72.6 1.0
5:00 pm 46.1 70.3 1.0
4:00 pm 47.7 70.0 1.0
3:00 pm 48.3 70.5 1.0
2:00 pm 48.7 74.0 1.0
1:00 pm 50.0 74.5 1.0
12:00 pm 49.9 75.0 1.0
11:00 am 49.9 77.4 1.0
10:00 am 45.9 84.5 1.0
9:00 am 41.7 87.8 1.0
8:00 am 40.8 92.8 1.0
7:00 am 40.1 95.5 1.0
6:00 am 40.6 94.4 1.0
5:00 am 41.4 93.6 1.0
4:00 am 41.7 93.1 1.0
3:00 am 42.1 92.6 1.0
2:00 am 42.4 91.1 1.0
1:00 am 42.5 89.5 1.0
12:00 am 42.6 87.1 1.0
 
November 6th, 2017
11:00 pm 42.9 87.3 1.0
10:00 pm 43.2 87.5 1.0
9:00 pm 43.8 85.5 1.0
8:00 pm 44.2 84.7 1.0
7:00 pm 44.3 84.5 1.0
6:00 pm 45.7 81.3 1.0
5:00 pm 47.8 77.1 1.0
4:00 pm 49.7 74.9 1.0
3:00 pm 51.4 73.8 1.0
2:00 pm 52.8 73.4 1.1
1:00 pm 52.3 74.4 1.0
12:00 pm 52.7 75.1 1.0
11:00 am 52.0 75.9 1.0
10:00 am 49.5 84.8 1.0
9:00 am 45.0 94.8 1.0
8:00 am 42.7 97.1 1.0
7:00 am 42.2 98.1 1.0
6:00 am 44.7 96.5 1.0
5:00 am 46.4 99.0 1.0
4:00 am 47.8 98.9 1.0
3:00 am 48.6 98.8 1.0
2:00 am 49.1 96.7 1.0
1:00 am 49.4 97.1 1.0
12:00 am 49.6 98.8 1.0
 
November 5th, 2017
11:00 pm 50.2 99.0 1.0
10:00 pm 50.6 99.0 1.0
9:00 pm 51.3 99.0 1.0
8:00 pm 51.9 99.0 1.0
7:00 pm 52.5 99.0 1.0
6:00 pm 54.2 99.0 1.0
5:00 pm 58.8 99.0 1.0
4:00 pm 59.9 99.0 1.0
3:00 pm 61.1 99.0 1.0
2:00 pm 62.1 99.0 1.0
1:00 pm 65.6 99.0 1.0 Rain
12:00 pm 67.8 99.0 1.0
11:00 am 67.1 99.0 1.0 Rain
10:00 am 67.1 99.0 1.0 Rain
9:00 am 66.9 99.0 1.0 Rain
8:00 am 65.5 99.0 1.0
7:00 am 64.0 99.0 1.0 Rain
6:00 am 62.9 99.0 1.0
5:00 am 62.2 99.0 1.0 Rain
4:00 am 61.8 99.0 1.0
3:00 am 61.2 99.0 1.0
1:00 am 59.7 99.0 1.0 Rain
12:00 am 59.1 99.0 1.0
 
November 4th, 2017
11:00 pm 58.1 99.0 1.0
10:00 pm 57.3 99.0 1.0
9:00 pm 57.2 99.0 1.0
8:00 pm 56.8 99.0 1.0
7:00 pm 57.5 99.0 1.0
6:00 pm 58.3 99.0 1.0
5:00 pm 58.3 99.0 1.0
4:00 pm 57.7 99.0 1.0
3:00 pm 56.8 99.0 1.0
2:00 pm 55.6 99.0 1.0 Rain
1:00 pm 54.7 99.0 1.0 Rain
12:00 pm 52.2 99.0 1.0
11:00 am 49.3 99.0 1.0
10:00 am 47.4 99.0 1.0
9:00 am 45.8 99.0 1.0
8:00 am 44.4 99.0 1.0
7:00 am 43.4 99.0 1.0
6:00 am 42.8 99.0 1.0
5:00 am 42.0 99.0 1.0
4:00 am 41.0 99.0 1.0
3:00 am 41.2 99.0 1.0
2:00 am 41.4 99.0 1.0
1:00 am 41.8 99.0 1.0
12:00 am 41.9 99.0 1.0
 
November 3rd, 2017
11:00 pm 41.5 99.0 1.0
10:00 pm 41.6 99.0 1.0
9:00 pm 42.5 97.0 1.0
8:00 pm 45.7 90.3 1.0
7:00 pm 48.4 84.8 1.0
6:00 pm 52.5 75.6 1.0
5:00 pm 56.3 68.7 1.0
4:00 pm 57.0 69.3 1.0
3:00 pm 56.1 72.3 1.1
2:00 pm 54.9 78.6 1.4
1:00 pm 52.1 85.4 1.1
12:00 pm 51.2 91.2 1.0
11:00 am 49.6 97.7 1.0
10:00 am 48.3 99.0 1.0
9:00 am 46.2 99.0 1.0
8:00 am 45.1 99.0 1.0
7:00 am 44.2 99.0 1.0
6:00 am 46.0 99.0 1.0
5:00 am 47.4 99.0 1.0
4:00 am 49.0 99.0 1.0
3:00 am 50.1 99.0 1.0
2:00 am 51.0 99.0 1.0
1:00 am 52.0 99.0 1.0
12:00 am 53.2 99.0 1.0
 
November 2nd, 2017
11:00 pm 54.7 99.0 1.0
10:00 pm 56.1 99.0 1.0
9:00 pm 59.5 99.0 1.0
8:00 pm 61.4 99.0 1.0 Rain
7:00 pm 62.0 99.0 1.0
6:00 pm 63.8 99.0 1.0
5:00 pm 64.7 99.0 1.0
4:00 pm 65.5 97.3 1.0
3:00 pm 66.4 94.9 1.0
2:00 pm 66.2 95.6 1.0
1:00 pm 64.9 98.3 1.0
12:00 pm 61.9 99.0 1.0
11:00 am 61.3 99.0 1.0
10:00 am 60.7 99.0 1.0
9:00 am 60.0 99.0 1.0
8:00 am 59.3 99.0 1.0
7:00 am 58.9 99.0 1.0
6:00 am 58.9 99.0 1.0
5:00 am 59.0 99.0 1.0
4:00 am 58.8 99.0 1.0
3:00 am 58.3 99.0 1.0
2:00 am 57.5 39.4 1.0
1:00 am 56.0 11.4 1.0
12:00 am 52.1 31.8 1.0
 
November 1st, 2017
11:00 pm 48.5 99.0 1.0
10:00 pm 46.5 99.0 1.0
9:00 pm 44.7 99.0 1.0
8:00 pm 44.2 99.0 1.0
7:00 pm 44.7 99.0 1.0
6:00 pm 45.5 94.8 1.0 Rain
5:00 pm 46.4 89.3 1.0
4:00 pm 46.8 86.8 1.0
3:00 pm 46.5 85.1 1.0
2:00 pm 46.7 82.9 1.0
1:00 pm 47.3 79.0 1.0
12:00 pm 47.4 78.2 1.0
11:00 am 46.1 81.8 1.0
10:00 am 41.0 93.5 1.0
9:00 am 38.4 97.9 1.0
8:00 am 37.3 99.0 1.0
7:00 am 37.1 97.7 1.0
6:00 am 37.2 91.6 1.0
5:00 am 36.7 83.2 1.0
4:00 am 35.8 85.8 1.0
3:00 am 35.1 91.3 1.0
2:00 am 34.8 91.7 1.0
1:00 am 34.2 93.3 1.0
12:00 am 34.1 91.8 1.0
 
October 31st, 2017
11:00 pm 35.5 86.1 1.0
10:00 pm 36.5 83.1 1.0
9:00 pm 37.4 74.2 1.0
8:00 pm 38.5 68.6 1.0
7:00 pm 39.6 62.8 1.0
6:00 pm 40.9 57.7 1.0
5:00 pm 42.8 54.2 1.0
4:00 pm 44.9 51.0 1.0
3:00 pm 45.8 50.2 1.0
2:00 pm 47.2 48.8 1.2
1:00 pm 45.5 53.0 1.3
12:00 pm 42.7 56.8 1.3
11:00 am 39.8 62.0 1.0
10:00 am 37.7 67.5 1.0
9:00 am 36.4 67.2 1.0
8:00 am 35.5 65.8 1.0
7:00 am 35.8 67.0 1.0
6:00 am 36.4 67.5 1.0
5:00 am 36.8 65.0 1.0
4:00 am 37.6 70.0 1.0
3:00 am 38.8 71.7 1.0
2:00 am 39.3 73.3 1.0
1:00 am 40.1 70.3 1.0
12:00 am 40.5 70.5 1.0
 
October 30th, 2017
11:00 pm 40.8 69.2 1.0
10:00 pm 41.2 68.1 1.0
9:00 pm 41.9 68.5 1.0
8:00 pm 42.8 65.8 1.0
7:00 pm 44.0 61.5 1.0
6:00 pm 46.2 60.2 1.0
5:00 pm 47.8 56.3 1.0
4:00 pm 49.1 53.9 1.0
3:00 pm 49.9 58.6 1.0
2:00 pm 49.3 61.6 1.0
1:00 pm 48.2 80.8 1.0
12:00 pm 46.5 91.7 1.0
11:00 am 44.6 92.8 1.0
10:00 am 43.0 91.8 1.0
9:00 am 41.5 93.0 1.0
8:00 am 41.7 85.0 1.0
7:00 am 41.5 79.1 1.0
6:00 am 40.9 79.2 1.0
5:00 am 40.6 78.6 1.0
4:00 am 39.9 78.3 1.0
3:00 am 38.6 81.6 1.0
2:00 am 36.8 86.6 1.0
1:00 am 34.7 91.2 1.0
12:00 am 33.2 90.9 1.0
 
October 29th, 2017
11:00 pm 33.3 93.0 1.0
10:00 pm 30.2 98.3 1.0
9:00 pm 29.0 97.5 1.0
8:00 pm 31.6 89.5 1.0
7:00 pm 37.6 73.6 1.0
6:00 pm 46.9 56.7 1.0
5:00 pm 49.9 50.7 1.0
4:00 pm 49.8 52.0 1.2
3:00 pm 48.6 56.0 1.4
2:00 pm 47.6 60.2 1.2
1:00 pm 45.2 64.7 1.3
12:00 pm 43.5 67.6 1.0
11:00 am 42.3 74.0 1.0


Daily Log

Date Low High UV Index
November, 2017
2017-11-19 31.9 38.3 1.0
2017-11-18 38.4 54.3 1.0 Rain
2017-11-17 30.3 49.5 1.0 Rain
2017-11-16 29.7 38.5 1.0
2017-11-15 34.7 50.3 1.0 Rain
2017-11-14 26.9 59.6 2.0
2017-11-13 32.9 47.1 2.0
2017-11-12 35.0 42.6 1.0
2017-11-11 23.6 49.5 1.0
2017-11-10 19.7 39.2 2.0
2017-11-09 23.5 52.8 2.0
2017-11-08 26.6 59.4 2.0
2017-11-07 38.6 50.9 1.0
2017-11-06 41.8 53.7 2.0
2017-11-05 49.8 68.1 1.0 Rain
2017-11-04 40.9 58.8 1.0 Rain
2017-11-03 41.0 57.5 2.0
2017-11-02 50.1 66.6 1.0 Rain
2017-11-01 33.9 49.9 1.0 Rain
October, 2017
2017-10-31 34.7 47.8 2.0
2017-10-30 33.0 50.3 1.0
2017-10-29 28.6 50.8 2.0
2017-10-28 35.8 41.6 1.0
2017-10-27 38.9 55.0 2.0
2017-10-26 28.0 71.6 2.0 Rain
2017-10-25 30.9 55.1 2.0
2017-10-24 42.5 50.5 1.0
2017-10-23 50.3 62.4 1.0 Rain
2017-10-22 59.4 78.5 1.0 Rain
2017-10-21 51.5 84.2 3.0
2017-10-20 46.4 86.2 2.0
2017-10-19 49.3 83.5 2.0
2017-10-18 35.8 76.5 3.0
2017-10-17 42.9 73.5 3.0
2017-10-16 36.9 68.7 3.0
2017-10-15 49.8 74.5 1.0 Rain
2017-10-14 59.6 90.3 2.0
2017-10-13 52.3 85.8 2.0
2017-10-12 54.4 66.5 1.0
2017-10-11 57.1 65.7 1.0
2017-10-10 58.0 78.3 2.0 Rain
2017-10-09 60.0 92.6 3.0
2017-10-08 48.3 83.1 3.0
2017-10-07 60.6 86.6 3.0 Rain
2017-10-06 66.0 73.4 1.0 Rain
2017-10-05 63.9 81.0 1.0 Rain
2017-10-04 67.3 82.7 2.0 Rain
2017-10-03 62.1 88.9 2.0
2017-10-02 49.2 93.7 3.0
2017-10-01 39.0 86.3 3.0 Rain
September, 2017
2017-09-30 43.4 79.1 3.0 Rain
2017-09-29 44.4 78.4 3.0 Rain
2017-09-28 47.3 77.1 3.0 Rain
2017-09-27 59.4 78.6 2.0 Rain
2017-09-26 62.5 98.9 2.0
2017-09-25 56.1 103.0 3.0
2017-09-24 61.1 103.5 3.0
2017-09-23 63.3 106.0 3.0
2017-09-22 64.7 102.1 3.0
2017-09-21 68.3 104.1 3.0
2017-09-20 59.7 100.3 3.0
2017-09-19 63.0 83.7 3.0 Rain
2017-09-18 66.3 87.4 3.0 Rain
2017-09-17 65.2 98.9 3.0 Rain
2017-09-16 59.4 103.8 3.0 Rain
2017-09-15 53.1 103.0 3.0
2017-09-14 53.0 89.6 3.0
2017-09-13 61.8 72.8 1.0 Rain
2017-09-12 50.1 82.9 3.0
2017-09-11 42.1 76.0 2.0 Rain
2017-09-10 41.8 87.9 3.0
2017-09-09 50.5 82.2 3.0
2017-09-08 45.0 83.5 3.0
2017-09-07 45.0 72.3 2.0
2017-09-06 44.9 70.5 4.0
2017-09-05 54.2 72.2 3.0
2017-09-04 57.2 91.8 2.0 Rain
2017-09-03 56.6 85.4 3.0
2017-09-02 45.9 79.9 4.0 Rain
2017-09-01 53.8 70.5 2.0
August, 2017
2017-08-31 55.0 80.2 2.0
2017-08-30 56.8 83.8 4.0
2017-08-29 60.8 88.3 4.0
2017-08-28 62.1 94.4 3.0 Rain
2017-08-27 52.5 92.7 3.0 Rain
2017-08-26 49.5 90.1 3.0
2017-08-25 47.4 82.3 4.0
2017-08-24 51.4 83.2 4.0
2017-08-23 52.8 80.7 4.0
2017-08-22 64.0 81.1 4.0 Rain
2017-08-21 65.6 98.7 2.0 Rain
2017-08-20 59.6 103.1 4.0 Rain
2017-08-19 61.9 94.2 3.0
2017-08-18 64.6 87.6 3.0
2017-08-17 72.4 89.9 4.0 Rain
2017-08-16 62.9 102.7 3.0
2017-08-15 63.7 93.5 3.0 Rain
2017-08-14 56.6 95.0 4.0
2017-08-13 49.7 92.8 4.0 Rain
2017-08-12 54.8 82.0 4.0
2017-08-11 63.9 88.0 4.0 Rain
2017-08-10 54.3 95.9 4.0
2017-08-09 53.9 97.7 4.0 Rain
2017-08-08 51.2 86.9 4.0
2017-08-07 62.2 81.0 2.0
2017-08-06 55.7 74.3 1.0
2017-08-05 54.1 81.9 3.0
2017-08-04 56.7 71.8 2.0 Rain
2017-08-03 63.1 92.9 3.0 Rain
2017-08-02 63.0 91.8 4.0
2017-08-01 64.4 95.3 4.0
July, 2017
2017-07-31 57.1 98.1 4.0
2017-07-30 53.2 95.6 4.0
2017-07-29 53.0 83.6 4.0
2017-07-28 66.2 84.6 4.0
2017-07-27 71.9 88.9 5.0 Rain
2017-07-26 58.5 98.0 3.0 Rain
2017-07-25 56.1 91.2 4.0
2017-07-24 64.9 82.3 5.0
2017-07-23 70.2 90.3 4.0
2017-07-22 71.9 88.5 4.0 Rain
2017-07-21 70.6 102.4 4.0 Rain
2017-07-20 69.2 93.3 4.0 Rain
2017-07-19 63.7 99.9 4.0
2017-07-18 63.2 94.4 5.0
2017-07-17 60.8 91.1 4.0
2017-07-16 62.8 91.3 4.0
2017-07-15 55.8 86.5 5.0
2017-07-14 65.1 82.7 5.0
2017-07-13 71.6 89.5 4.0 Rain
2017-07-12 72.1 93.7 4.0 Rain
2017-07-11 70.4 83.1 2.0 Rain
2017-07-10 73.1 89.3 3.0 Rain
2017-07-09 53.7 97.3 5.0 Rain
2017-07-08 60.4 83.1 5.0 Rain
2017-07-07 68.3 93.1 3.0 Rain
2017-07-06 69.3 102.7 5.0
2017-07-05 63.9 98.7 3.0
2017-07-04 66.3 100.2 4.0 Rain
2017-07-03 69.4 98.5 5.0
2017-07-02 59.5 90.4 5.0
2017-07-01 67.2 86.2 5.0 Rain
June, 2017
2017-06-30 68.6 86.3 2.0 Rain
2017-06-29 69.2 91.6 4.0 Rain
2017-06-28 50.4 85.5 3.0
2017-06-27 46.1 85.2 4.0
2017-06-26 52.1 75.0 3.0 Rain
2017-06-25 55.7 75.8 5.0
2017-06-24 57.5 77.5 5.0
2017-06-23 66.7 79.1 3.0 Rain
2017-06-22 71.0 85.3 4.0 Rain
2017-06-21 59.4 90.7 4.0
2017-06-20 57.1 84.5 4.0
2017-06-19 59.6 77.2 5.0 Rain
2017-06-18 65.0 78.7 5.0 Rain
2017-06-17 69.2 84.1 3.0
2017-06-16 63.0 92.1 4.0 Rain
2017-06-15 65.4 89.7 4.0 Rain
2017-06-14 65.8 92.4 5.0 Rain
2017-06-13 67.5 99.0 5.0 Rain
2017-06-12 69.4 95.0 5.0
2017-06-11 68.2 94.8 4.0
2017-06-10 66.0 92.4 4.0
2017-06-09 61.7 91.5 4.0
2017-06-08 45.2 95.0 5.0
2017-06-07 53.5 81.3 5.0
2017-06-06 51.6 82.4 5.0
2017-06-05 63.1 94.1 5.0
2017-06-04 70.6 93.0 4.0 Rain
2017-06-03 51.8 98.5 5.0
2017-06-02 46.9 96.7 5.0
2017-06-01 47.3 86.9 5.0
May, 2017
2017-05-31 52.8 78.9 5.0
2017-05-30 54.1 77.9 5.0
2017-05-29 58.1 84.9 5.0
2017-05-28 57.0 81.6 4.0 Rain
2017-05-27 60.8 83.0 3.0
2017-05-26 47.9 88.1 5.0 Rain
2017-05-25 54.3 64.6 1.0
2017-05-24 55.5 65.1 1.0 Rain
2017-05-23 56.7 82.5 3.0
2017-05-22 47.8 78.0 5.0
2017-05-21 56.3 71.8 6.0
2017-05-20 51.6 80.9 4.0 Rain
2017-05-19 52.5 69.7 5.0 Rain
2017-05-18 69.3 91.7 5.0 Rain
2017-05-17 68.4 87.2 4.0
2017-05-16 65.2 87.6 5.0
2017-05-15 52.9 93.6 5.0
2017-05-14 52.5 85.9 5.0
2017-05-13 43.5 80.2 5.0
2017-05-12 48.3 73.7 5.0
2017-05-11 51.7 65.0 1.0 Rain
2017-05-10 50.1 84.3 4.0 Rain
2017-05-09 45.1 64.0 2.0
2017-05-08 30.8 71.8 5.0 Rain
2017-05-07 33.7 64.3 5.0
2017-05-06 36.8 58.8 6.0 Rain
2017-05-05 41.2 58.1 5.0
2017-05-04 45.2 48.2 1.0 Rain
2017-05-03 32.0 59.9 2.0 Rain
2017-05-02 43.2 55.7 3.0
2017-05-01 48.1 67.6 2.0 Rain
April, 2017
2017-04-30 50.9 68.2 1.0
2017-04-29 51.2 59.2 2.0 Rain
2017-04-28 42.4 59.5 1.0
2017-04-27 48.8 61.5 3.0 Rain
2017-04-26 61.5 86.4 5.0 Rain
2017-04-25 48.1 83.2 5.0
2017-04-24 32.6 78.2 5.0
2017-04-23 33.0 73.9 5.0
2017-04-22 41.7 64.2 5.0
2017-04-21 43.7 59.5 2.0
2017-04-20 53.7 81.9 5.0 Rain
2017-04-19 61.4 84.7 4.0
2017-04-18 39.1 80.7 5.0
2017-04-17 47.3 81.0 5.0
2017-04-16 54.4 72.7 3.0 Rain
2017-04-15 57.4 83.5 5.0
2017-04-14 48.8 78.3 4.0 Rain
2017-04-13 44.7 73.4 3.0
2017-04-12 33.7 71.4 4.0
2017-04-11 45.1 62.5 3.0
2017-04-10 61.6 71.9 2.0 Rain
2017-04-09 52.1 77.4 4.0
2017-04-08 30.7 67.6 5.0
2017-04-07 31.5 55.0 6.0
2017-04-06 37.3 49.7 5.0
2017-04-05 41.5 53.3 3.0 Rain
2017-04-04 42.8 56.7 2.0
2017-04-03 49.7 67.2 1.0 Rain
2017-04-02 38.8 64.9 5.0
2017-04-01 38.2 61.5 5.0
March, 2017
2017-03-31 39.1 55.0 1.0 Rain
2017-03-30 44.3 59.2 4.0
2017-03-29 44.6 59.4 4.0
2017-03-28 40.8 54.8 3.0
2017-03-27 49.3 62.8 1.0 Rain
2017-03-26 53.1 63.8 3.0 Rain
2017-03-25 58.2 74.5 4.0 Rain
2017-03-24 49.7 77.5 5.0
2017-03-23 27.5 54.8 4.0
2017-03-22 24.5 42.5 6.0
2017-03-21 33.5 57.9 4.0 Rain
2017-03-20 40.1 54.1 2.0 Rain
2017-03-19 26.6 57.4 5.0
2017-03-18 36.4 44.5 1.0
2017-03-17 32.4 46.2 1.0 Rain
2017-03-16 14.5 48.1 5.0
2017-03-15 16.3 35.5 5.0
2017-03-14 14.0 32.4 5.0
2017-03-13 24.7 31.4 1.0
2017-03-12 13.5 43.1 5.0
2017-03-11 21.1 37.1 4.0
2017-03-10 22.6 40.6 5.0
2017-03-09 25.7 56.9 3.0
2017-03-08 37.1 58.4 5.0
2017-03-07 40.3 63.3 6.0 Rain
2017-03-06 52.3 62.0 1.0 Rain
2017-03-05 31.3 66.7 4.0
2017-03-04 29.0 46.3 5.0
2017-03-03 22.7 38.4 5.0
2017-03-02 27.0 39.8 3.0
2017-03-01 35.5 63.4 1.0 Rain
February, 2017
2017-02-28 45.2 64.0 1.0 Rain
2017-02-27 28.4 60.5 4.0
2017-02-26 18.2 50.9 5.0
2017-02-25 24.0 42.8 3.0 Rain
2017-02-24 43.1 68.2 2.0 Rain
2017-02-23 48.7 67.0 2.0 Rain
2017-02-22 48.0 70.8 5.0 Rain
2017-02-21 51.9 60.4 1.0
2017-02-20 36.2 59.6 2.0
2017-02-19 38.3 74.1 5.0
2017-02-18 45.3 70.5 4.0
2017-02-17 38.8 69.0 5.0
2017-02-16 27.2 50.6 6.0
2017-02-15 25.9 39.9 4.0
2017-02-14 32.6 52.5 5.0
2017-02-13 22.6 47.9 5.0
2017-02-12 32.3 52.5 5.0 Rain
2017-02-11 42.2 67.9 4.0 Rain
2017-02-10 7.9 45.6 3.0
2017-02-09 3.6 23.4 5.0
2017-02-08 20.7 34.9 1.0
2017-02-07 35.0 1,000.0 1.0 Rain
2017-02-06 22.2 55.3 3.0 Rain
2017-02-05 24.4 47.1 4.0
2017-02-04 8.2 35.9 3.0
2017-02-03 14.2 31.4 5.0
2017-02-02 17.0 30.6 5.0
2017-02-01 30.1 40.6 1.0
January, 2017
2017-01-31 36.4 41.5 1.0
2017-01-30 13.0 36.2 4.0
2017-01-29 24.0 28.8 1.0
2017-01-28 24.6 32.7 1.0
2017-01-27 25.0 31.3 1.0
2017-01-26 30.7 37.3 1.0 Rain
2017-01-25 37.3 51.9 2.0
2017-01-24 38.4 41.2 1.0
2017-01-23 39.1 43.3 1.0
2017-01-22 37.8 53.7 2.0
2017-01-21 44.7 65.4 4.0 Rain
2017-01-20 42.3 52.4 1.0
2017-01-19 33.9 44.9 1.0 Rain
2017-01-18 34.2 38.6 1.0 Rain
2017-01-17 36.1 55.8 1.0 Rain
2017-01-16 32.9 1,000.0 1.0 Rain
2017-01-15 23.5 36.4 1.0
2017-01-14 25.0 32.0 1.0 Rain
2017-01-13 19.7 1,000.0 2.0
2017-01-12 25.3 54.4 1.0 Rain
2017-01-11 27.5 60.8 1.0 Rain
2017-01-10 33.6 54.1 1.0 Rain
2017-01-09 18.2 33.9 1.0 Rain
2017-01-08 -1.8 24.7 4.0
2017-01-07 -5.8 18.4 4.0
2017-01-06 -3.4 12.4 4.0
2017-01-05 6.2 16.7 1.0
2017-01-04 15.2 29.9 4.0
2017-01-03 30.1 45.9 1.0
2017-01-02 30.4 49.5 1.0
2017-01-01 15.0 47.8 4.0
December, 2016
2016-12-31 19.8 48.8 4.0
2016-12-30 26.0 38.4 4.0
2016-12-29 32.0 40.1 4.0
2016-12-28 20.3 1,000.0 4.0 Rain
2016-12-27 25.6 40.8 4.0
2016-12-26 34.1 61.8 1.0 Rain
2016-12-25 33.6 45.0 1.0
2016-12-24 34.0 39.6 1.0 Rain
2016-12-23 25.6 37.9 1.0 Rain
2016-12-22 23.7 42.6 4.0
2016-12-21 18.4 41.7 4.0
2016-12-20 11.6 35.7 3.0
2016-12-19 -8.0 21.6 4.0 Rain
2016-12-18 -3.4 21.0 4.0 Rain
2016-12-17 19.7 32.5 1.0 Rain
2016-12-16 13.2 26.7 1.0
2016-12-15 2.4 15.9 4.0
2016-12-14 0.2 25.3 3.0
2016-12-13 6.9 24.1 2.0 Rain
November, 2016
2016-11-27 34.8 36.5 1.0
2016-11-26 36.4 49.3 2.0
2016-11-25 36.8 41.8 1.0
2016-11-24 38.1 46.9 1.0 Rain
2016-11-23 38.0 47.0 1.0 Rain
2016-11-22 21.6 47.7 2.0
2016-11-20 24.2 29.3 1.0
2016-11-19 29.6 41.9 1.0
2016-11-18 42.2 72.2 2.0 Rain
2016-11-17 36.2 76.6 4.0 Rain
2016-11-16 31.2 72.4 4.0 Rain
2016-11-15 36.9 66.1 4.0
2016-11-14 26.9 64.9 3.0
2016-11-13 22.9 61.6 5.0 Rain
2016-11-12 21.3 61.6 5.0 Rain
2016-11-11 35.9 58.3 4.0
2016-11-10 31.0 64.7 5.0
2016-11-09 33.1 60.9 4.0
2016-11-08 39.8 57.3 1.0 Rain
2016-11-07 34.6 78.0 4.0
2016-11-06 33.9 80.2 5.0
2016-11-05 32.0 73.3 4.0
2016-11-04 35.6 64.8 5.0 Rain